Location: Watson Lake
(60.1170°N, 128.8000°W)
Time: 21:23:14
(UTC-07:00)

Daily predictions for brighter satellites

Satellite Brightness Start Highest point End
(mag) Time Altitude Azimuth Time Altitude Azimuth Time Altitude Azimuth
CZ-4C R/B 4.0 18:43:00 10° ESE 18:44:41 11° ESE 18:46:26 10° E
IDEFIX/ARIANE 42P 4.3 18:40:55 10° SSW 18:45:52 40° W 18:50:51 10° NNW
Meteor 2-21 4.4 18:40:40 10° S 18:46:40 69° E 18:52:42 10° NNE
Cosmos 1666 Rocket 4.4 18:43:09 10° N 18:46:58 28° ENE 18:50:45 10° ESE
Cosmos-2242 3.0 18:43:12 10° S 18:47:25 65° E 18:51:40 10° NNE
FENGYUN 3A 4.0 18:43:46 10° SE 18:48:54 46° ENE 18:54:05 10° NNW
CORIOLIS 4.3 18:44:29 10° SSE 18:49:55 85° WSW 18:55:25 10° NNW
NOSS 2-1 (C) 3.9 18:45:49 10° WSW 18:50:01 74° NNW 18:55:26 10° ENE
NOSS 2-1 (D) 3.9 18:46:07 10° WSW 18:50:19 74° NNW 18:55:44 10° ENE
Cosmos 2366 rocket 4.1 18:45:30 10° SSE 18:51:29 54° E 18:57:27 10° NNE
Cosmos 1633 Rocket 4.0 18:47:42 10° N 18:51:31 27° ENE 18:55:20 10° ESE
ERS-2 2.2 18:48:33 10° SSE 18:52:16 88° WSW 18:56:01 10° NNW
EO 1 Del DPAF 4.4 18:50:40 10° NE 18:53:47 23° E 18:56:52 10° SE
Cosmos 1461 3.2 18:50:25 10° SSW 18:54:28 54° SE 18:58:46 10° ENE
MOS 1 4.3 18:50:51 10° SSE 18:56:32 75° ENE 19:02:15 10° NNW
Lacrosse 4 Rocket 2.7 18:52:39 10° W 18:56:42 35° NNW 19:00:41 10° NE
Cosmos 1420 Rocket 4.5 18:51:35 10° NW 18:56:55 69° WSW 19:02:11 10° SSE
Landsat 4 4.3 18:53:59 10° NNE 18:57:26 34° E 19:00:51 10° SSE
Cosmos 2154 Rocket 4.5 18:51:40 10° SSW 18:57:59 69° WNW 19:04:23 10° NNE
H-2A R/B 4.2 18:56:55 10° NE 18:58:02 11° NNE 18:59:09 10° N
Cosmos 1833 Rocket 3.4 18:52:52 10° WSW 18:58:22 52° NW 19:03:53 10° NE
Timation 2 Rocket 4.3 18:52:07 10° SW 18:58:47 89° NW 19:05:44 10° NE
Cosmos 1726 3.8 18:56:51 10° ESE 18:58:56 15° E 19:01:02 10° NE
YAOGAN 1 2.6 18:55:06 10° SSE 18:59:27 86° ENE 19:03:50 10° NNW
CZ-2C R/B 4.1 18:56:27 10° NNE 19:00:47 41° E 19:05:02 10° S
CZ-4 R/B 1.8 18:58:05 10° S 19:02:14 71° WSW 19:06:20 10° NNW
SL-8 Rocket 4.0 18:56:41 10° S 19:02:53 76° E 19:09:12 10° NNE
USA 161 2.5 19:01:26 10° N 19:03:46 38° WNW 19:05:54 10° SW
Meteor 2-14 Rocket 4.4 19:00:32 10° S 19:06:35 75° E 19:12:40 10° NNE
Meteor 1-28 Rocket 3.6 19:03:47 10° NNE 19:07:26 41° E 19:11:01 10° S
Cosmos 1680 Rocket 3.8 19:03:08 10° SW 19:08:24 72° NW 19:13:40 10° NNE
Cosmos 1470 3.9 19:04:47 10° SW 19:08:39 48° WNW 19:12:31 10° N
Envisat 4.1 19:05:40 10° E 19:09:40 24° NE 19:13:42 10° N
Cosmos 2219 Rocket 2.3 19:04:38 10° NW 19:10:17 83° SW 19:15:54 10° SE
Cosmos 2084 4.4 19:07:19 10° WNW 19:10:55 42° SW 19:14:33 10° SSE
Cosmos 1315 Rocket 3.0 19:06:59 10° NNW 19:11:05 80° WSW 19:15:11 10° S
SL-16 R/B 4.2 19:06:57 10° NNE 19:12:20 32° NW 19:17:44 10° WSW
Meteor 2-16 Rocket 4.4 19:06:38 10° S 19:12:43 73° E 19:18:52 10° NNE
Cosmos 921 Rocket 4.2 19:09:50 10° NW 19:14:10 48° WSW 19:18:25 10° S
Cosmos 1000 Rocket 4.5 19:07:59 10° NNW 19:14:15 67° ENE 19:20:25 10° SSE
SKYMED 2 4.2 19:12:33 10° NNE 19:16:32 33° E 19:20:28 10° SSE
NOSS 2-1 (E) 4.1 19:12:23 10° W 19:16:43 68° NNW 19:21:59 12° ENE
Cosmos 864 Rocket 4.5 19:11:32 10° S 19:17:49 72° E 19:24:05 10° NNE
NOAA 12 4.1 19:12:47 10° SSE 19:18:05 71° ENE 19:23:26 10° NNW
Cosmos 2221 3.1 19:15:44 10° SSE 19:19:41 35° E 19:23:41 10° NNE
Meteor 1-16 Rocket 4.2 19:14:43 10° SSW 19:20:05 89° W 19:25:37 10° NNE
GP-B 3.1 19:15:37 10° N 19:20:06 83° E 19:24:34 10° S
Cosmos 1626 3.7 19:18:31 10° NNW 19:22:04 40° W 19:25:34 10° SSW
FengYun 1-2 T 4.4 19:18:15 10° SE 19:23:33 52° ENE 19:28:53 10° NNW
HJ-1C 4.4 19:21:12 10° ESE 19:24:11 29° ENE 19:27:13 10° N
METEOR-M 4.3 19:18:52 10° SSE 19:24:14 83° WSW 19:29:38 10° NNW
ALOS 2.2 19:19:36 10° SSE 19:24:16 70° ENE 19:28:57 10° NNW
Cosmos 1331 Rocket 4.0 19:19:06 10° NNW 19:24:24 74° NE 19:29:37 10° SE
Cosmos 1821 Rocket 4.4 19:21:35 10° SSE 19:27:17 39° E 19:33:05 10° NNE
MTI 3.9 19:27:56 10° NNE 19:31:07 51° ESE 19:34:16 10° S
Meteor 2-1 Rocket 4.3 19:25:59 10° S 19:31:48 65° E 19:37:42 10° NNE
Cosmos 2218 Rocket 4.1 19:29:06 10° SSW 19:35:15 84° WNW 19:41:29 10° NNE
Cosmos 1842 Rocket 3.5 19:31:24 10° S 19:35:52 81° E 19:40:19 10° NNE
Aureole 2 Rocket 3.5 19:32:44 10° NW 19:36:28 54° WSW 19:40:23 10° SSE
Lacrosse 5 rocket 1.8 19:33:13 10° WSW 19:37:35 57° S 19:40:29 19° ESE
Cosmos 1908 3.3 19:35:29 10° S 19:39:17 54° E 19:43:07 10° NNE
SJ-6B 3.0 19:37:56 10° SE 19:41:31 45° ENE 19:45:08 10° N
In-Cosmos 22 Rocket 4.2 19:39:39 10° NNW 19:45:21 68° ENE 19:51:09 10° SSE
Cosmos 1470 Rocket 4.0 19:41:19 10° N 19:45:36 41° ENE 19:49:38 11° SE
Cosmos 2123 Rocket 4.0 19:40:55 10° NNW 19:47:09 69° ENE 19:53:24 10° SSE
Cosmos 2237 Rocket 2.3 19:42:00 10° NW 19:47:45 80° SW 19:53:27 10° SSE
USA 186 3.5 19:49:24 15° NNE 19:49:24 15° NNE 19:50:18 10° NNE
H-2A R/B 2.8 19:45:20 10° SSE 19:49:13 62° ENE 19:53:08 10° N
Cosmos 44 4.1 19:47:32 10° S 19:51:07 26° ESE 19:52:16 23° E
Cosmos 1943 4.1 19:47:02 10° NW 19:52:16 35° NNE 19:55:32 20° ENE
NOSS 3-3 (A) 4.4 19:46:39 10° W 19:53:19 69° N 19:58:55 19° ENE
NOSS 3-3 (C) 4.4 19:46:45 10° W 19:53:24 69° N 19:59:01 19° ENE
Cosmos 1302 Rocket 3.9 19:48:35 10° NNW 19:53:50 76° NE 19:59:05 10° SE
Cosmos 1408 4.3 19:52:21 10° N 19:54:42 18° NE 19:54:42 18° NE
Cosmos 1269 Rocket 4.4 19:51:05 10° S 19:55:59 40° ESE 20:00:55 10° NE
Sich 1 3.0 19:54:55 10° NNW 19:59:19 89° W 20:03:43 10° SSE
Cosmos 1892 3.1 19:55:41 10° N 19:59:21 41° ENE 20:01:03 25° ESE
SL-16 R/B 2.2 19:54:57 10° NW 20:00:39 74° NE 20:05:09 17° SE
Cosmos 1603 4.2 19:55:29 10° NW 20:00:57 45° NNE 20:04:05 24° E
Cosmos 1605 Rocket 4.4 19:56:16 10° SSE 20:01:47 37° E 20:07:19 10° NNE
Cosmos 1300 3.2 19:59:30 10° SSE 20:03:03 36° E 20:06:37 10° NNE
MOS 1-B Rocket 4.1 19:58:04 10° SE 20:03:53 64° ENE 20:10:37 10° NNW
Cosmos 2227 Rocket 3.6 20:00:45 10° SSE 20:03:07 18° SE 20:03:07 18° SE
COSMO-SKYMED 1 2.5 20:00:27 10° NNE 20:04:50 76° ESE 20:09:11 10° SSW
Iridium 4 Rocket 3.8 20:01:45 10° S 20:07:35 82° E 20:13:33 10° N
FREGAT/IRIS 2.6 20:06:00 10° SSE 20:09:00 80° WSW 20:12:01 10° NNW
Cosmos 1867 4.1 20:04:24 10° W 20:09:47 54° N 20:13:21 21° ENE
Cosmos 1980 4.3 20:06:36 10° NW 20:12:09 58° WSW 20:17:41 10° SSE
Spot 2 Rocket 3.7 20:09:47 21° SE 20:13:01 51° ENE 20:17:56 10° NNW
Aureole 1 Rocket 3.8 20:08:18 10° SW 20:13:14 52° NW 20:17:02 10° NNE
ATLAS 5 CENTAUR R/B 2.3 20:08:41 10° WNW 20:13:58 66° N 20:17:10 27° E
Resurs 01 Rocket 1.7 20:12:41 24° SE 20:15:05 53° ENE 20:19:25 10° NNW
Genesis I 4.0 20:11:33 10° W 20:15:23 44° N 20:17:09 27° NE
USA 234 3.4 20:11:06 23° ESE 20:15:28 69° S 20:22:03 10° W
CZ-2D R/B 3.2 20:14:21 25° SE 20:16:29 61° ENE 20:20:21 10° N
Cosmos 1992 Rocket 4.2 20:12:31 10° NNW 20:17:41 54° NE 20:20:04 30° ESE
Resurs 1-3 3.7 20:15:52 27° SE 20:18:01 53° ENE 20:22:18 10° N
Meteor 2-3 Rocket 3.7 20:13:50 10° NNW 20:19:40 70° ENE 20:25:11 11° SSE
USA 32 4.0 20:14:55 10° N 20:20:09 65° ENE 20:25:22 10° SSE
Cosmos 2082 Rocket 3.6 20:17:59 10° W 20:23:05 32° NNW 20:27:45 12° NE
Cosmos 2098 Rocket 3.8 20:19:13 10° S 20:24:39 84° E 20:31:28 10° NNE
Cosmos 1447 Rocket 4.4 20:18:23 10° NNW 20:24:46 72° ENE 20:31:04 10° SSE
Cosmos 2333 Rocket 3.6 20:19:38 10° NW 20:24:56 39° WSW 20:30:14 10° S
Cosmos 1666 Rocket 4.1 20:20:52 10° NNW 20:25:10 58° W 20:29:25 10° S
EO 1 Del DPAF 3.8 20:24:32 10° NNE 20:28:22 61° WNW 20:32:11 10° SSW
Cosmos 44 Rocket 3.5 20:24:04 10° SSW 20:28:31 44° SE 20:29:24 39° E
Cosmos 1633 Rocket 3.5 20:25:19 10° NNW 20:29:42 62° W 20:34:04 10° S
CZ-4C R/B 2.7 20:26:16 10° SSW 20:31:26 41° SE 20:33:19 33° E
Cosmos 2228 Rocket 3.8 20:32:27 36° ENE 20:32:27 36° ENE 20:35:56 10° NNE
Cosmos 1933 Rocket 3.4 20:28:41 10° NNW 20:33:04 80° ENE 20:35:40 24° SSE
Cosmos 1461 3.4 20:29:30 10° W 20:33:42 58° NNW 20:35:41 30° NE
Cosmos 1726 2.0 20:30:01 10° SSW 20:33:43 87° WNW 20:37:25 10° NNE
SAR-Lupe-3 4.4 20:30:46 10° NNE 20:34:22 64° ESE 20:37:56 10° S
Cosmos 1833 4.3 20:29:26 10° SW 20:35:06 77° NW 20:40:31 11° NE
Cosmos 2219 3.2 20:29:39 10° SSW 20:35:17 59° ESE 20:39:41 17° NE
Cosmos 158 Rocket 3.9 20:30:23 10° SSW 20:35:34 85° ESE 20:40:55 10° NNE
H-2A R/B 3.3 20:35:14 24° NE 20:35:47 24° NE 20:40:06 10° N
Terra 3.9 20:36:00 13° NE 20:36:00 13° NE 20:38:15 10° N
Lacrosse 4 Rocket 2.8 20:32:33 10° NW 20:36:24 29° N 20:37:41 25° NE
Cosmos 1825 3.3 20:33:32 10° N 20:36:02 29° NNE 20:36:02 29° NNE
Geosat 4.1 20:35:28 38° ESE 20:37:13 60° NE 20:42:11 10° NW
Meteor 2-10 3.9 20:32:15 10° S 20:37:18 67° E 20:42:32 10° NNE
Cosmos 1328 Rocket 3.7 20:38:59 49° E 20:39:00 49° E 20:43:14 10° NNE
NOSS 2-1 (C) 4.2 20:36:29 10° WNW 20:41:04 63° N 20:43:19 36° ENE
APEX 4.3 20:38:32 10° SSW 20:39:41 22° SSW 20:39:41 22° SSW
NOSS 2-1 (D) 4.2 20:36:47 10° WNW 20:41:23 63° N 20:43:37 36° ENE
Cosmos 2297 Rocket 4.0 20:36:56 10° SSE 20:37:55 14° SSE 20:37:55 14° SSE
Cosmos 1048 Rocket 3.8 20:37:04 10° SSW 20:42:12 82° ESE 20:47:22 10° NNE
Cosmos 1535 Rocket 4.4 20:36:17 10° S 20:42:25 90° SE 20:48:35 10° NNE
Cosmos 1833 Rocket 4.2 20:38:36 10° WNW 20:43:29 29° NNW 20:47:18 15° NE
SJ-11-01 4.4 20:44:14 47° ESE 20:45:13 57° ENE 20:49:54 10° NNW
Envisat 2.9 20:45:15 27° SSE 20:48:08 83° ENE 20:53:16 10° NNW
Helios 1A 4.0 20:49:25 32° NE 20:49:25 32° NE 20:52:30 10° N
ARGOS 3.9 20:50:30 34° ENE 20:50:53 35° NE 20:55:45 10° N
Cosmos 2219 Rocket 4.4 20:49:11 10° NW 20:53:34 24° WSW 20:57:57 10° SSW
Cosmos 1939 Rocket 2.8 20:54:32 66° ENE 20:54:35 66° ENE 20:58:45 10° NNW
ERS-1 Rocket 3.6 20:56:24 38° NE 20:56:24 38° NE 21:01:02 10° N
Cosmos 2221 3.7 20:53:02 10° SW 20:57:14 44° WNW 21:01:28 10° N
Thor Agena Rocket 3.4 20:53:49 10° NNE 20:58:59 83° ESE 21:04:04 10° SSW
YAOGAN 6 3.5 21:02:38 40° N 21:02:38 40° N 21:05:14 10° N
ALOS 4.5 20:58:16 10° SSW 21:02:10 26° W 21:06:06 10° NNW
Cosmos 1459 Rocket 4.2 21:06:05 45° E 21:06:09 45° E 21:12:11 10° NNE
NOSS 2-1 (E) 4.2 21:03:03 10° WNW 21:07:51 67° NNE 21:09:20 48° ENE
Meteor 2-2 Rocket 4.1 21:03:07 10° S 21:08:47 84° ESE 21:14:28 10° NNE
NOAA 11 4.2 21:08:27 54° E 21:09:01 57° ENE 21:14:22 10° NNW
Cosmos 1934 Rocket 4.2 21:03:54 10° SSW 21:10:17 74° WNW 21:16:41 10° NNE
COSMOS 2406 4.3 21:05:08 10° NW 21:10:21 33° NNE 21:11:48 29° NE
GENESIS II 4.3 21:06:42 10° WSW 21:10:29 74° WNW 21:10:29 74° WNW
Cosmos 1802 Rocket 4.4 21:17:17 42° ENE 21:17:17 42° ENE 21:22:12 10° NNE
Lacrosse 5 rocket 2.1 21:12:22 10° W 21:16:10 43° SW 21:16:10 43° SW
USA 186 4.3 21:20:50 15° NNW 21:20:50 15° NNW 21:21:26 10° NNW
Meteor 1-27 4.1 21:20:19 10° S 21:26:04 75° ESE 21:31:56 10° NNE
MetOp-A 4.2 21:30:43 60° NE 21:30:43 60° NE 21:35:46 10° NNW
Cosmos 1408 4.0 21:26:54 10° NNW 21:29:08 34° NNW 21:29:08 34° NNW
Cosmos 2237 Rocket 4.3 21:26:42 10° NW 21:31:05 23° WSW 21:35:27 10° SSW
Cosmos 44 3.6 21:27:32 10° SW 21:30:43 49° SW 21:30:43 49° SW
Cosmos 1892 4.5 21:31:38 10° NNW 21:35:02 30° W 21:36:07 26° WSW
Cosmos 1943 3.1 21:31:24 10° NW 21:37:09 77° NE 21:37:20 76° ENE
Tsikada Rocket 3.9 21:32:12 10° NNW 21:38:33 70° ENE 21:38:58 68° E
Cosmos 1300 4.3 21:35:16 10° SW 21:38:48 34° WNW 21:42:22 10° N
Cosmos 2100 Rocket 3.8 21:39:53 71° E 21:39:55 71° E 21:46:05 10° NNE
Cosmos 1900 4.4 21:37:59 10° NW 21:42:54 78° W 21:42:54 78° W
SL-16 R/B 3.5 21:39:22 10° NW 21:44:29 35° WSW 21:47:03 24° SSW
SPOT 1/Viking Rocket 4.4 21:45:51 38° NNE 21:45:51 38° NNE 21:49:34 10° NNW
NOSS 3-3 (A) 4.3 21:37:55 10° WNW 21:44:53 80° NNE 21:46:21 60° E
NOSS 3-3 (C) 4.3 21:38:01 10° WNW 21:44:59 80° NNE 21:46:27 60° E
Cosmos 1603 3.8 21:39:46 10° NW 21:45:26 69° WSW 21:45:59 65° SSW
Cosmos 1605 Rocket 4.4 21:40:55 10° SSW 21:46:58 61° WNW 21:53:03 10° N
Cosmos 2227 Rocket 3.4 21:42:22 10° SSW 21:45:03 29° SSW 21:45:03 29° SSW
Resurs 01 Rocket 3.2 21:50:17 25° SW 21:51:49 31° W 21:55:48 10° NNW
Cosmos 1869 Rocket 4.4 21:48:37 10° NNW 21:52:00 48° NW 21:52:00 48° NW
SPOT 5 3.7 21:55:04 45° NNE 21:55:04 45° NNE 21:58:58 10° NNW
Cosmos 1867 3.9 21:48:41 10° WNW 21:54:00 57° N 21:54:00 57° N
ATLAS 5 CENTAUR R/B 2.3 21:53:24 10° WNW 21:58:43 73° SW 21:58:43 73° SW
USA 234 3.7 21:58:27 46° S 21:59:08 47° SSW 22:05:28 10° WNW
Cosmos 2346 Rocket 4.5 21:55:45 10° NNW 22:01:14 67° NNE 22:01:14 67° NNE
Cosmos 2173 Rocket 3.9 22:04:32 79° NNE 22:04:32 79° NNE 22:10:15 10° NNE
Cosmos 2082 Rocket 3.6 22:03:46 10° NW 22:08:46 29° N 22:09:35 28° NNE
Cosmos 2228 Rocket 4.3 22:09:52 42° WNW 22:09:53 42° WNW 22:14:17 10° N
Cosmos 44 Rocket 4.4 22:05:14 10° WSW 22:08:08 37° W 22:08:08 37° W
Terra 3.5 22:14:53 25° N 22:14:53 25° N 22:17:07 10° N
Cosmos 1825 4.5 22:09:09 10° NNW 22:10:54 23° NW 22:10:54 23° NW
H-2A R/B 2.7 22:15:52 52° N 22:15:52 52° N 22:20:02 10° NNW
Lacrosse 4 Rocket 3.3 22:11:42 10° NW 22:14:01 28° NNW 22:14:01 28° NNW
CZ-4C R/B 2.6 22:13:47 10° WSW 22:18:33 64° WSW 22:18:33 64° WSW
Cosmos 2219 4.0 22:14:03 10° WSW 22:19:39 50° NW 22:21:37 36° NNE
Cosmos 1833 Rocket 4.0 22:24:01 10° NW 22:28:59 30° NNE 22:28:59 30° NNE
ARGOS 3.8 22:32:00 54° NW 22:32:00 54° NW 22:36:20 10° NNW
ERS-1 Rocket 4.1 22:36:24 42° NW 22:36:24 42° NW 22:40:03 10° NNW
Cosmos 2061 Rocket 4.3 22:42:45 63° NW 22:42:45 63° NW 22:48:34 10° N
COSMOS 2406 4.2 22:49:52 10° NW 22:53:51 43° NNW 22:53:51 43° NNW
ATLAS 5 CENTAUR R/B 4.3 23:38:17 10° WNW 23:40:15 19° W 23:40:15 19° W
Terra 4.4 23:53:47 18° NNW 23:53:47 18° NNW 23:55:02 10° NNW
Cosmos 2082 Rocket 4.0 23:48:31 10° NW 23:51:25 29° NNW 23:51:25 29° NNW
H-2A R/B 4.2 23:56:31 22° NW 23:56:31 22° NW 23:59:11 10° NNW
